{"data":{"norad_id":60309,"epoch":"2026-09-21T16:54:03.768192Z","epoch_age_seconds":81541,"freshness":"FRESH","line1":"1 60309U 24133J   26264.70421028 -.00001681  00000+0 -90248-5 0  9990","line2":"2 60309  53.1585 259.6989 0000958  94.8481 265.2646 15.69705032124524","mean_motion":15.69705032,"eccentricity":9.58e-5,"inclination_deg":53.1585,"raan_deg":259.6989,"arg_perigee_deg":94.8481,"mean_anomaly_deg":265.2646,"bstar":-9.0248e-6,"rev_number":12452,"period_min":91.736980556485,"perigee_km":359.09547826239,"apogee_km":360.38645568086,"semimajor_km":6737.8779669716,"source":"CELESTRAK","updated_at":"2026-09-22T09:00:49.198113Z"}}